Content
SEND FEEDBACK

Daily
Averages
Monthly
Summary
United States of America

LAURINBURG, NORTH CAROLINA


Home > North America > United States > North Carolina
Elevation: 220 feet     Latitude: 34 47N     Longitude: 079 22W

WEATHER
 
SELECT A DAY
Number of Records: 174,934;   Date Range: 6/24/98 - 10/19/14
 
SHARE

PRINT THIS DATA

[ ← Previous Day ]
WEATHER ALMANAC - JANUARY 23, 2013
[ Next Day → ]
[ °C ]   °F
Weather ElementAverageHighLow
Temperature32.6 °F43 °F (2:52 pm)21.9 °F (6:52 am)
Dewpoint13.4 °F27 °F (11:52 pm)5 °F (9:52 am)
Humidity48 %72 % (11:52 pm)26 % (12:52 pm)
Barometer30.28 in30.40 in (9:52 am)30.11 in (11:52 pm)
Wind Speed5.1 mph8.1 mph (8:52 am)
Weather ElementAverage
Visibility10 mi
Wind DirectionESE (106.1 °)

Weather ElementTotal
Precipitation---
Heating Degree Days32.6 (Base 65)
Averaged from 23 records on January 23, 2013
WEATHER CONDITIONS BREAKOUT
WIND DIRECTION BREAKOUT
WEATHER BY HOUR - JANUARY 23, 2013
[ °C ]   °F
Local TimeTemperatureDewpointHumidityBarometerVisibilityWind DirectionWind SpeedGust SpeedPrecipitationEventsConditions
1:52 AM26.1 °F12.0 °F55 %30.30 in10.0 miNE (50°)5.8 mphClear
2:52 AM25.0 °F10.9 °F55 %30.32 in10.0 miNE (50°)5.8 mphClear
3:52 AM25.0 °F12.0 °F58 %30.32 in10.0 miNE (50°)4.6 mphClear
4:52 AM24.1 °F12.9 °F62 %30.32 in10.0 miENE (70°)3.5 mphClear
5:52 AM23.0 °F10.9 °F60 %30.35 in10.0 miNE (50°)5.8 mphClear
6:52 AM21.9 °F10.9 °F63 %30.36 in10.0 miENE (60°)3.5 mphClear
7:52 AM24.1 °F9.0 °F53 %30.37 in10.0 miCalmClear
8:52 AM28.0 °F9.0 °F45 %30.39 in10.0 miEast (80°)8.1 mphClear
9:52 AM30.9 °F5.0 °F33 %30.40 in10.0 miEast (100°)5.8 mphClear
10:52 AM34.0 °F6.1 °F31 %30.40 in10.0 miSE (140°)4.6 mphClear
11:52 AM36.0 °F5.0 °F27 %30.38 in10.0 miCalmClear
12:52 PM39.9 °F7.0 °F26 %30.33 in10.0 miVariable4.6 mphClear
1:52 PM42.1 °F9.0 °F26 %30.28 in10.0 miVariable3.5 mphClear
2:52 PM43.0 °F10.0 °F26 %30.26 in10.0 miVariable4.6 mphClear
3:52 PM43.0 °F12.0 °F28 %30.26 in10.0 miWSW (250°)6.9 mphClear
4:52 PM42.1 °F12.9 °F31 %30.25 in10.0 miWSW (240°)6.9 mphClear
5:52 PM37.9 °F19.0 °F47 %30.23 in10.0 miSouth (170°)3.5 mphClear
6:52 PM34.0 °F21.9 °F61 %30.23 in10.0 miSSE (150°)3.5 mphClear
7:52 PM34.0 °F21.0 °F59 %30.20 in10.0 miSouth (170°)6.9 mphClear
8:52 PM30.9 °F19.9 °F64 %30.18 in10.0 miSouth (190°)5.8 mphClear
9:52 PM35.1 °F19.9 °F54 %30.17 in10.0 miSSW (200°)8.1 mphClear
10:52 PM35.1 °F25.0 °F67 %30.14 in10.0 miSSW (200°)8.1 mphClear
11:52 PM35.1 °F27.0 °F72 %30.11 in10.0 miSW (220°)8.1 mphClear
Hourly data recorded from KMEB, located miles away from Laurinburg, North Carolina







STORIES FROM OUR PARTNERS